South Bend, IN

1:52 PM EDT on July 20, 2017 (GMT -0400)
South Bend Regional

Weather History for KSBN - September, 2014

Change the Weather History Date:

Tuesday, September 2, 2014

  Actual Average Record
Temperature  
Mean Temperature 74 °F 69 °F  
Max Temperature 82 °F 79 °F 99 °F (1929)
Min Temperature 65 °F 59 °F 41 °F (1909)
Degree Days  
Heating Degree Days 0 1  
Month to date heating degree days 0 2  
Since 1 July heating degree days 28 20  
Cooling Degree Days 9 5  
Month to date cooling degree days 22 10  
Year to date cooling degree days 715 692  
Growing Degree Days 24 (Base 50)    
Moisture  
Dew Point 64 °F    
Average Humidity 65    
Maximum Humidity 90    
Minimum Humidity 39    
Precipitation  
Precipitation T in 0.12 in 2.48 in (1993)
Month to date precipitation 0.03 0.24  
Year to date precipitation 28.24 25.51  
Snow  
Snow 0.00 in 0.00 in 0.00 in (2002)
Month to date snowfall 0.0  
Since 1 July snowfall 0.0  
Since 1 September snowfall 0.0  
Snow Depth -    
Sea Level Pressure  
Sea Level Pressure 29.90 in    
Wind  
Wind Speed 7 mph (WSW)    
Max Wind Speed 15 mph    
Max Gust Speed 19 mph    
Visibility 10 miles    
Events Rain    
T = Trace of Precipitation, MM = Missing Value Source: NWS Daily Summary

Daily Weather History Graph

Daily Weather History Graph

Search for Another Location

Airport or City:

Trip Planner

Search our weather history database for the weather conditions in past years. The results will help you decide how hot, cold, wet, or windy it might be!

Date:

Astronomy

Sep. 02, 2014 Rise Set
Actual Time 7:12 AM EDT 8:16 PM EDT
Civil Twilight 6:43 AM EDT 8:45 PM EDT
Nautical Twilight 6:09 AM EDT 9:19 PM EDT
Astronomical Twilight 5:33 AM EDT 9:54 PM EDT
Moon 3:01 PM EDT (9/2) 12:13 AM EDT (9/2)
Length of Visible Light 14h 01m
Length of Day
13h 04m
First Quarter, 52% of the Moon is Illuminated
Sep 2
First Quarter
Sep 8
Full
Sep 15
Last Quarter
Sep 24
New
Oct 1
First Quarter

Hourly Weather History & Observations

Time (EDT) Temp. Heat Index Dew Point Humidity Pressure Visibility Wind Dir Wind Speed Gust Speed Precip Events Conditions
12:54 AM 71.1 °F - 66.0 °F 84% 29.87 in 10.0 mi SW 10.4 mph - N/A   Scattered Clouds
1:54 AM 71.1 °F - 64.9 °F 81% 29.86 in 10.0 mi SW 10.4 mph - N/A   Mostly Cloudy
2:54 AM 71.1 °F - 64.9 °F 81% 29.88 in 10.0 mi SW 8.1 mph - N/A   Overcast
3:54 AM 69.1 °F - 64.9 °F 87% 29.86 in 10.0 mi West 5.8 mph - N/A   Clear
4:54 AM 70.0 °F - 66.0 °F 87% 29.86 in 10.0 mi SSW 10.4 mph - N/A   Clear
5:54 AM 69.1 °F - 64.9 °F 87% 29.88 in 10.0 mi SW 9.2 mph - N/A   Mostly Cloudy
6:10 AM 69.1 °F - 66.0 °F 90% 29.89 in 10.0 mi WSW 8.1 mph - N/A   Mostly Cloudy
6:44 AM 69.1 °F - 66.0 °F 90% 29.88 in 10.0 mi SW 6.9 mph - N/A   Overcast
6:54 AM 69.1 °F - 66.0 °F 90% 29.87 in 10.0 mi SW 6.9 mph - N/A   Mostly Cloudy
7:20 AM 69.1 °F - 66.0 °F 90% 29.89 in 10.0 mi SW 6.9 mph - N/A   Mostly Cloudy
7:54 AM 70.0 °F - 66.0 °F 87% 29.88 in 10.0 mi WSW 8.1 mph - N/A   Overcast
8:02 AM 70.0 °F - 66.0 °F 87% 29.89 in 10.0 mi WSW 9.2 mph - N/A   Overcast
8:54 AM 70.0 °F - 66.0 °F 87% 29.88 in 10.0 mi WSW 6.9 mph - N/A   Overcast
9:54 AM 71.1 °F - 64.9 °F 81% 29.89 in 10.0 mi SW 8.1 mph - N/A   Mostly Cloudy
10:03 AM 72.0 °F - 66.0 °F 81% 29.90 in 10.0 mi WSW 9.2 mph - N/A   Mostly Cloudy
10:25 AM 72.0 °F - 66.0 °F 81% 29.91 in 10.0 mi WSW 8.1 mph - N/A   Partly Cloudy
10:54 AM 72.0 °F - 66.0 °F 81% 29.90 in 10.0 mi SW 6.9 mph - N/A   Scattered Clouds
11:54 AM 72.0 °F - 66.9 °F 84% 29.92 in 10.0 mi WSW 6.9 mph - 0.00 in Rain Light Rain
12:54 PM 75.0 °F - 66.9 °F 76% 29.90 in 10.0 mi WSW 5.8 mph - 0.00 in   Scattered Clouds
1:06 PM 75.2 °F - 66.2 °F 73% 29.91 in 10.0 mi SW 4.6 mph - N/A   Mostly Cloudy
1:16 PM 75.9 °F - 66.0 °F 71% 29.91 in 10.0 mi West 5.8 mph - N/A   Scattered Clouds
1:54 PM 78.1 °F - 64.9 °F 64% 29.90 in 10.0 mi SW 9.2 mph - N/A   Scattered Clouds
2:54 PM 79.0 °F - 64.9 °F 62% 29.90 in 10.0 mi SW 11.5 mph - N/A   Scattered Clouds
3:54 PM 81.0 °F 81.7 °F 61.0 °F 50% 29.91 in 10.0 mi West 6.9 mph - N/A   Partly Cloudy
4:54 PM 81.0 °F 80.5 °F 54.0 °F 39% 29.90 in 10.0 mi NW 12.7 mph - N/A   Clear
5:54 PM 80.1 °F 80.7 °F 59.0 °F 48% 29.90 in 10.0 mi North 8.1 mph - N/A   Partly Cloudy
6:54 PM 78.1 °F - 59.0 °F 52% 29.90 in 10.0 mi NNW 9.2 mph - N/A   Clear
7:54 PM 73.9 °F - 61.0 °F 64% 29.90 in 10.0 mi North 5.8 mph - N/A   Clear
8:54 PM 70.0 °F - 61.0 °F 73% 29.91 in 10.0 mi Calm Calm - N/A   Clear
9:54 PM 66.9 °F - 60.1 °F 79% 29.94 in 10.0 mi Calm Calm - N/A   Clear
10:54 PM 66.9 °F - 61.0 °F 81% 29.95 in 10.0 mi SE 3.5 mph - N/A   Clear
11:54 PM 66.0 °F - 60.1 °F 81% 29.97 in 10.0 mi Calm Calm - N/A   Scattered Clouds